TimeCDT,TemperatureF,Dew PointF,Humidity,Sea Level PressureIn,VisibilityMPH,Wind Direction,Wind SpeedMPH,Gust SpeedMPH,PrecipitationIn,Events,Conditions,WindDirDegrees,DateUTC
12:54 AM,77.0,66.0,69,29.85,10.0,South,18.4,26.5,N/A,,Mostly Cloudy,170,2013-04-18 05:54:00
1:54 AM,75.9,66.0,71,29.84,10.0,South,23.0,31.1,N/A,,Scattered Clouds,170,2013-04-18 06:54:00
2:54 AM,75.0,66.0,73,29.81,10.0,South,12.7,-,N/A,,Mostly Cloudy,170,2013-04-18 07:54:00
3:44 AM,75.2,66.2,73,29.82,10.0,South,18.4,29.9,N/A,,Mostly Cloudy,180,2013-04-18 08:44:00
3:54 AM,73.9,66.0,76,29.80,9.0,South,18.4,27.6,N/A,,Mostly Cloudy,170,2013-04-18 08:54:00
3:57 AM,73.4,66.2,78,29.81,9.0,South,20.7,27.6,N/A,,Mostly Cloudy,180,2013-04-18 08:57:00
4:54 AM,73.9,64.9,73,29.80,9.0,South,19.6,26.5,N/A,,Mostly Cloudy,180,2013-04-18 09:54:00
5:54 AM,73.0,64.0,73,29.81,10.0,South,15.0,-,N/A,,Mostly Cloudy,170,2013-04-18 10:54:00
6:54 AM,72.0,63.0,73,29.83,10.0,South,15.0,20.7,N/A,,Mostly Cloudy,170,2013-04-18 11:54:00
7:54 AM,72.0,63.0,73,29.82,10.0,South,16.1,25.3,N/A,,Overcast,180,2013-04-18 12:54:00
8:54 AM,73.0,62.1,68,29.81,10.0,South,20.7,29.9,N/A,,Overcast,190,2013-04-18 13:54:00
9:54 AM,75.0,62.1,64,29.79,10.0,South,20.7,28.8,N/A,,Mostly Cloudy,190,2013-04-18 14:54:00
10:54 AM,77.0,61.0,58,29.81,10.0,SSW,13.8,19.6,N/A,,Overcast,200,2013-04-18 15:54:00
11:54 AM,75.9,61.0,60,29.81,10.0,South,21.9,33.4,N/A,,Overcast,190,2013-04-18 16:54:00
12:54 PM,75.0,63.0,66,29.78,10.0,South,13.8,27.6,N/A,,Overcast,190,2013-04-18 17:54:00
1:54 PM,77.0,63.0,62,29.74,10.0,South,23.0,28.8,N/A,,Overcast,180,2013-04-18 18:54:00
2:54 PM,80.1,63.0,56,29.69,10.0,South,25.3,34.5,N/A,,Overcast,180,2013-04-18 19:54:00
3:54 PM,78.1,62.1,58,29.65,10.0,South,16.1,26.5,N/A,,Overcast,170,2013-04-18 20:54:00
4:54 PM,78.1,61.0,56,29.62,10.0,South,11.5,-,N/A,,Overcast,170,2013-04-18 21:54:00
5:07 PM,78.8,60.8,54,29.64,10.0,South,12.7,-,N/A,Thunderstorm,Thunderstorm,180,2013-04-18 22:07:00
5:54 PM,71.1,66.0,84,29.66,2.0,SSW,4.6,-,0.16,Rain-Thunderstorm,Heavy Thunderstorms and Rain,200,2013-04-18 22:54:00
6:10 PM,69.8,66.2,88,29.65,3.0,Calm,Calm,-,0.07,Rain-Thunderstorm,Heavy Thunderstorms and Rain,0,2013-04-18 23:10:00
6:13 PM,69.8,66.2,88,29.64,1.8,NW,4.6,-,0.08,Rain-Thunderstorm,Thunderstorms and Rain,310,2013-04-18 23:13:00
6:38 PM,69.8,66.2,88,29.64,2.5,WNW,10.4,-,0.26,Rain,Heavy Rain,290,2013-04-18 23:38:00
6:46 PM,69.8,66.2,88,29.65,1.0,WNW,13.8,26.5,0.31,Rain,Heavy Rain,290,2013-04-18 23:46:00
6:54 PM,62.1,60.1,93,29.64,0.8,NW,19.6,28.8,0.52,Rain,Heavy Rain,310,2013-04-18 23:54:00
6:59 PM,62.6,60.8,94,29.65,1.0,NW,21.9,28.8,0.08,Rain,Heavy Rain,310,2013-04-18 23:59:00
7:21 PM,55.4,53.6,94,29.69,2.5,NW,26.5,39.1,0.37,Rain,Heavy Rain,320,2013-04-19 00:21:00
7:40 PM,51.8,50.0,94,29.71,5.0,NW,20.7,40.3,0.50,Rain,Rain,320,2013-04-19 00:40:00
7:54 PM,51.1,48.9,92,29.72,3.0,NW,17.3,27.6,0.62,Rain,Heavy Rain,310,2013-04-19 00:54:00
8:22 PM,51.8,48.2,88,29.75,6.0,WNW,15.0,23.0,0.12,Rain,Heavy Rain,300,2013-04-19 01:22:00
8:54 PM,50.0,46.9,89,29.75,7.0,NW,16.1,25.3,0.25,Rain,Rain,310,2013-04-19 01:54:00
9:39 PM,48.2,44.6,87,29.80,5.0,NW,15.0,23.0,0.25,Rain,Heavy Rain,310,2013-04-19 02:39:00
9:54 PM,48.0,45.0,89,29.82,7.0,WNW,18.4,24.2,0.29,Rain,Rain,300,2013-04-19 02:54:00
10:42 PM,46.4,42.8,87,29.83,10.0,WNW,15.0,24.2,0.03,Rain,Light Rain,300,2013-04-19 03:42:00
10:54 PM,46.9,43.0,86,29.86,10.0,WNW,13.8,24.2,0.03,Rain,Light Rain,300,2013-04-19 03:54:00
11:54 PM,46.9,42.1,83,29.86,10.0,NW,12.7,21.9,0.01,Rain,Light Rain,310,2013-04-19 04:54:00